Nassau, Bahamas

11:57 PM EDT on August 24, 2016 (GMT -0400)
Nassau International

Weather History for MYNN - March, 2013

Change the Weather History Date:

Wednesday, March 27, 2013

  Actual Average Record
Temperature  
Mean Temperature 68 °F -  
Max Temperature 73 °F 82 °F 87 °F (2015)
Min Temperature 63 °F 66 °F 63 °F (2013)
Cooling Degree Days 3    
Growing Degree Days 18 (Base 50)    
Moisture  
Dew Point 47 °F    
Average Humidity 47    
Maximum Humidity 59    
Minimum Humidity 26    
Precipitation  
Precipitation 0.00 in 0.07 in - ()
Sea Level Pressure  
Sea Level Pressure 30.15 in    
Wind  
Wind Speed 8 mph ()    
Max Wind Speed 12 mph    
Max Gust Speed -    
Visibility 6.7 miles    
Events      
Averages and records for this station are not official NWS values.
T = Trace of Precipitation, MM = Missing Value Source: Averaged Metar Reports

Daily Weather History Graph

Daily Weather History Graph

Search for Another Location

Airport or City:

Trip Planner

Search our weather history database for the weather conditions in past years. The results will help you decide how hot, cold, wet, or windy it might be!

Date:

Astronomy

Mar. 27, 2013 Rise Set
Actual Time 7:06 AM EDT 7:24 PM EDT
Civil Twilight 6:43 AM EDT 7:47 PM EDT
Nautical Twilight 6:16 AM EDT 8:13 PM EDT
Astronomical Twilight 5:49 AM EDT 8:40 PM EDT
Moon 7:56 PM EDT (3/27) 7:01 AM EDT (3/27)
Length of Visible Light 13h 03m
Length of Day
12h 17m
Full, 100% of the Moon is Illuminated
Mar 27
Full
Apr 3
Last Quarter
Apr 10
New
Apr 18
First Quarter
Apr 25
Full

Hourly Weather History & Observations

Time (EDT) Temp. Dew Point Humidity Pressure Visibility Wind Dir Wind Speed Gust Speed Precip Events Conditions
12:00 AM 64.4 °F 50.0 °F 59% 30.13 in 6.2 mi North 11.5 mph - N/A   Partly Cloudy
1:00 AM 64.4 °F 50.0 °F 59% 30.13 in 6.2 mi North 11.5 mph - N/A   Partly Cloudy
2:00 AM 64 °F 47 °F 43% 30.12 in 8 mi NNW 8.1 mph - -   Partly Cloudy
2:00 AM 64.4 °F 46.4 °F 52% 30.11 in 6.2 mi NNW 8.1 mph - N/A   Scattered Clouds
3:00 AM 64.4 °F 48.2 °F 56% 30.10 in 6.2 mi North 6.9 mph - N/A   Scattered Clouds
4:00 AM 64.4 °F 48.2 °F 56% 30.09 in 6.2 mi North 6.9 mph - N/A   Scattered Clouds
5:00 AM 64 °F 45 °F 39% 30.10 in 8 mi North 8.1 mph - -   Scattered Clouds
5:00 AM 64.4 °F 44.6 °F 49% 30.10 in 6.2 mi North 8.1 mph - N/A   Partly Cloudy
6:00 AM 64.4 °F 48.2 °F 56% 30.11 in 6.2 mi North 5.8 mph - N/A   Scattered Clouds
7:00 AM 64.4 °F 46.4 °F 52% 30.13 in 6.2 mi North 4.6 mph - N/A   Scattered Clouds
8:00 AM 65 °F 46 °F 38% 30.15 in 8 mi North 6.9 mph - -   Partly Cloudy
8:00 AM 64.4 °F 46.4 °F 52% 30.15 in 6.2 mi North 6.9 mph - N/A   Scattered Clouds
9:00 AM 66.2 °F 50.0 °F 56% 30.16 in 6.2 mi North 6.9 mph - N/A   Scattered Clouds
10:00 AM 66.2 °F 48.2 °F 52% 30.18 in 6.2 mi North 10.4 mph - N/A   Scattered Clouds
11:00 AM 69 °F 47 °F 34% 30.20 in 8 mi North 10.4 mph - -   Partly Cloudy
11:00 AM 69.8 °F 46.4 °F 43% 30.19 in 6.2 mi North 10.4 mph - N/A   Scattered Clouds
12:00 PM 68.0 °F 46.4 °F 46% 30.19 in 6.2 mi North 9.2 mph - N/A   Scattered Clouds
1:00 PM 68.0 °F 48.2 °F 49% 30.19 in 6.2 mi North 9.2 mph - N/A   Scattered Clouds
2:00 PM 72 °F 45 °F 26% 30.19 in 8 mi North 10.4 mph - -   Partly Cloudy
2:00 PM 71.6 °F 44.6 °F 38% 30.18 in 6.2 mi North 10.4 mph - N/A   Scattered Clouds
3:00 PM 69.8 °F 46.4 °F 43% 30.16 in 6.2 mi NNE 9.2 mph - N/A   Scattered Clouds
4:00 PM 69.8 °F 46.4 °F 43% 30.14 in 6.2 mi North 9.2 mph - N/A   Partly Cloudy
5:00 PM 70 °F 45 °F 29% 30.14 in 8 mi North 10.4 mph - -   Scattered Clouds
5:00 PM 69.8 °F 44.6 °F 40% 30.14 in 6.2 mi North 10.4 mph - N/A   Partly Cloudy
6:00 PM 68.0 °F 48.2 °F 49% 30.15 in 6.2 mi North 8.1 mph - N/A   Scattered Clouds
7:00 PM 68.0 °F 50.0 °F 52% 30.16 in 6.2 mi North 9.2 mph - N/A   Scattered Clouds
8:00 PM 67 °F 46 °F 35% 30.17 in 9 mi Calm Calm - -   Scattered Clouds
8:00 PM 68.0 °F 46.4 °F 46% 30.17 in 6.2 mi North 6.9 mph - N/A   Partly Cloudy
9:00 PM 66.2 °F 50.0 °F 56% 30.18 in 6.2 mi North 5.8 mph - N/A   Partly Cloudy
10:00 PM 66.2 °F 50.0 °F 56% 30.20 in 6.2 mi North 4.6 mph - N/A   Scattered Clouds
11:00 PM 67 °F 51 °F 46% 30.20 in 9 mi NNE 4.6 mph - -   Partly Cloudy
11:00 PM 68.0 °F 51.8 °F 56% 30.20 in 6.2 mi NNE 4.6 mph - N/A   Scattered Clouds